Location: Dzirula
(42.2667°N, 43.6000°E)
Time: 01:22:22
(UTC+00:00)

Daily predictions for brighter satellites

Satellite Brightness Start Highest point End
(mag) Time Altitude Azimuth Time Altitude Azimuth Time Altitude Azimuth
Cosmos 1758 Rocket 4.4 00:02:13 22° WSW 00:04:09 33° WNW 00:08:06 10° N
STARLINK-1228 3.8 00:02:22 10° WNW 00:05:21 30° SW 00:08:19 10° SSE
H-2A R/B 2.6 00:01:39 10° SSE 00:05:53 62° ENE 00:10:14 10° N
STARLINK-1232 3.8 00:01:48 10° NW 00:05:57 73° NE 00:10:05 10° ESE
STARLINK-1234 3.8 00:04:34 10° WNW 00:07:46 27° SSW 00:10:04 10° SSE
CZ-2C R/B 3.9 00:03:51 10° NNE 00:07:20 38° E 00:10:50 10° SSE
Spot 4 Rocket 4.2 00:02:57 10° NNE 00:08:06 72° ESE 00:13:03 11° S
STARLINK-1212 3.2 00:05:48 10° WNW 00:08:43 39° SW 00:11:39 10° SSE
CZ-4C R/B 2.0 00:05:33 21° SW 00:08:56 81° NW 00:14:48 10° NE
STARLINK-1105 3.2 00:06:17 10° WNW 00:09:12 39° SW 00:12:05 10° SSE
STARLINK-1247 3.3 00:07:12 10° WNW 00:10:07 38° SW 00:13:02 10° SSE
ATLAS CENTAUR R/B 2.6 00:06:43 10° WNW 00:10:13 57° SW 00:18:46 10° SSE
STARLINK-1227 3.3 00:07:40 10° WNW 00:10:34 37° SW 00:13:26 10° SSE
Cosmos 1656 4.4 00:06:54 18° WSW 00:10:40 40° WNW 00:15:58 10° N
STARLINK-1208 3.7 00:06:46 10° NW 00:10:55 79° NE 00:15:03 10° ESE
Cosmos 1898 Rocket 3.8 00:05:55 10° NNW 00:11:02 49° WSW 00:16:07 10° S
STARLINK-1226 3.3 00:08:31 10° WNW 00:11:25 37° SW 00:14:19 10° SSE
Cosmos 2285 Rocket 4.0 00:05:39 10° NNW 00:12:02 77° WSW 00:18:19 10° SSE
STARLINK-1215 3.4 00:09:28 10° WNW 00:12:22 36° SW 00:15:15 10° SSE
STARLINK-1217 3.4 00:11:15 10° WNW 00:14:07 34° SW 00:17:00 10° SSE
STARLINK-1229 3.4 00:12:10 10° WNW 00:15:03 34° SW 00:17:54 10° SSE
IDEFIX/ARIANE 42P 3.1 00:10:15 10° NNE 00:15:28 59° E 00:20:39 10° S
STARLINK-1270 3.5 00:13:02 10° WNW 00:15:54 33° SW 00:18:45 10° SSE
STARLINK-1271 3.6 00:11:46 10° NW 00:15:55 86° NNE 00:20:04 10° SE
Cosmos 1570 Rocket 4.1 00:12:35 17° SSW 00:16:38 67° WNW 00:21:56 10° NNE
Lacrosse 4 Rocket 2.0 00:12:50 10° NNW 00:17:08 62° ENE 00:21:18 10° SE
STARLINK-1189 3.5 00:14:54 10° WNW 00:17:44 32° SW 00:20:33 10° SSE
Cosmos 2369 3.8 00:13:58 17° SW 00:18:17 66° WNW 00:23:55 10° NNE
STARLINK-1188 3.6 00:15:47 10° WNW 00:18:37 31° SW 00:21:26 10° SSE
STARLINK-1235 4.0 00:16:40 10° WNW 00:19:13 23° SW 00:21:45 10° S
Cosmos 2208 Rocket 4.0 00:15:11 16° SSW 00:19:25 76° WNW 00:24:44 10° NNE
STARLINK-1187 3.8 00:16:59 10° WNW 00:19:40 26° SW 00:22:20 10° SSE
SJ 16-02 2.3 00:15:54 10° NW 00:19:41 28° W 00:22:22 16° SSW
Cosmos 1953 Rocket 4.2 00:17:27 18° SW 00:20:23 41° WNW 00:24:37 10° N
STARLINK-1154 3.6 00:16:44 10° NW 00:20:54 87° SSW 00:25:02 10° SE
STARLINK-1191 3.6 00:18:18 10° WNW 00:21:03 29° SW 00:23:48 10° SSE
Cosmos 2360 4.2 00:16:23 15° SSW 00:21:07 82° WNW 00:26:52 10° NNE
Cosmos 1937 Rocket 3.6 00:16:19 10° NNW 00:21:26 55° WSW 00:26:33 10° S
STARLINK-1221 3.7 00:19:11 10° WNW 00:21:55 29° SW 00:24:39 10° SSE
STARLINK-1222 3.7 00:20:05 10° WNW 00:22:49 28° SW 00:25:32 10° SSE
STARLINK-1214 3.7 00:21:01 10° WNW 00:23:43 27° SW 00:26:24 10° SSE
STARLINK-1197 3.5 00:21:43 10° NW 00:25:52 80° SW 00:30:00 10° SE
IRIDIUM 104 4.4 00:24:50 10° S 00:30:02 81° E 00:35:17 10° N
Cosmos 1842 Rocket 3.7 00:25:50 10° N 00:30:21 85° E 00:34:49 10° S
STARLINK-1198 3.5 00:26:40 10° NW 00:30:49 74° SW 00:34:56 10° SE
BREEZE M DEB (TANK) 3.4 00:28:42 10° WNW 00:31:41 58° SSW 00:40:26 10° SE
Cosmos 1814 Rocket 4.2 00:30:51 12° SSW 00:35:42 62° WNW 00:41:01 10° NNE
STARLINK-1199 3.5 00:31:42 10° WNW 00:35:49 67° SW 00:39:55 10° SE
STARLINK 1040 3.8 00:34:58 13° SSW 00:36:53 29° SE 00:39:12 10° ENE
Nadezhda 3 Rocket 4.1 00:31:01 10° N 00:37:18 89° E 00:43:38 10° S
Cosmos 1980 Rocket 2.2 00:31:54 11° SSW 00:37:19 80° WNW 00:42:58 10° NNE
Iridium 2 3.8 00:33:57 10° NNW 00:37:39 56° W 00:41:20 10° S
IRIDIUM 114 4.3 00:33:59 10° S 00:39:11 84° W 00:44:27 10° N
STARLINK-1210 3.6 00:36:40 10° WNW 00:40:46 61° SW 00:44:50 10° SE
CZ-2C R/B 4.0 00:37:40 10° NNE 00:42:25 37° E 00:47:11 10° SSE
STARLINK-1219 3.7 00:41:40 10° WNW 00:45:44 55° SW 00:49:46 10° SE
CZ-4B R/B 2.9 00:44:21 10° SE 00:47:11 36° ENE 00:50:01 10° N
ERS-2 3.2 00:45:04 10° SSW 00:48:13 27° W 00:51:22 10° NW
IRIDIUM 103 4.4 00:43:11 10° S 00:48:22 69° W 00:53:35 10° N
STARLINK-43 3.6 00:45:27 11° SW 00:48:57 59° SE 00:52:35 10° ENE
Cosmos 1825 4.5 00:47:20 10° SE 00:50:25 25° E 00:53:32 10° NE
STARLINK-1211 3.8 00:46:39 10° WNW 00:50:41 50° SW 00:54:41 10° SSE
Cosmos 2297 Rocket 3.6 00:48:40 10° WNW 00:52:21 18° W 00:56:01 10° SW
STARLINK-1245 3.9 00:51:41 10° WNW 00:55:39 45° SW 00:59:37 10° SSE
USA 129 2.6 00:54:39 10° NNW 00:56:11 21° WNW 00:57:10 12° WSW
Cosmos 2082 4.3 00:51:18 10° NW 00:56:20 34° WSW 01:01:18 10° SSW
USA 234 3.4 00:49:46 10° NE 00:56:20 83° SE 01:02:54 10° SW
Cosmos 540 Rocket 4.3 00:52:47 10° SW 00:57:31 36° WNW 01:02:16 10° N
SL-4 R/B 4.3 00:53:41 10° WNW 00:57:38 25° N 01:01:26 10° NE
Cosmos 1076 Rocket 3.6 00:55:26 10° S 00:59:47 88° W 01:04:10 10° N
Cosmos 2278 4.3 00:54:36 10° SW 00:59:58 44° WNW 01:05:24 10° NNE
STARLINK-1233 4.0 00:56:41 10° WNW 01:00:36 41° SW 01:04:30 10° SSE
Landsat 5 4.1 00:58:48 10° S 01:03:03 42° W 01:07:22 10° NNW
STARLINK-1204 4.1 01:01:43 10° WNW 01:05:34 37° SW 01:09:24 10° SSE
